Zurück zum Katalog

CSTP-1.1

AktivWissenschaftSSO
NORAD 57202·PAYLOAD·🇷🇺 Russia
Dieser Satellitenname wurde noch nicht durch offizielle Quellen bestätigt.

Gestartet Jun 27, 2023 von Vostochny Cosmodrome

Loading…

Nächste Überflüge (nächste 24 Stunden)

TLE

AktuellSource: Space-Track

Epoche: Sep 14, 2026, 12:08 UTC

1 57202U 23091AN  26257.50577551  .00004040  00000-0  19162-3 0  9998
2 57202  97.5020 315.8151 0010096 149.9919 210.1897 15.19814943177528

Verfolge CSTP-1.1 in Echtzeit mit AllMySat

Download on the App Store